WA1OUI Weather Reports


time (UTC)temp
C
wind
direction
speed
KPH
gust
KPH
rain 1hr
cm
rain 24hr
cm
rain mn
cm
humidity
%
barometer
mb
20260504150756 18 36 0.0 8.0 0.00 0.00 0.00 32 1009.0
20260504150253 18 25 4.8 8.0 0.00 0.00 0.00 33 1008.9
20260504141223 17 35 3.2 9.7 0.00 0.00 0.00 35 1009.4
20260504140719 17 121 6.4 8.0 0.00 0.00 0.00 35 1009.4
20260504140214 17 314 4.8 16.1 0.00 0.00 0.00 34 1009.4
20260504130643 13 90 0.0 6.4 0.00 0.00 0.00 41 1010.1
20260504130140 13 346 3.2 9.7 0.00 0.00 0.00 42 1010.2
20260504120104 10 350 3.2 4.8 0.00 0.00 0.00 57 1010.4
20260504110531 3 9 4.8 4.8 0.00 0.00 0.00 84 1010.4
20260504100453 2 359 1.6 3.2 0.00 0.00 0.00 88 1010.4
20260504081846 2 342 3.2 4.8 0.00 0.00 0.00 83 1009.8
20260504081343 2 356 3.2 3.2 0.00 0.00 0.00 83 1009.7
20260504080839 3 358 3.2 3.2 0.00 0.00 0.00 81 1009.7
20260504080336 3 339 3.2 3.2 0.00 0.00 0.00 81 1009.6
20260504070303 3 341 1.6 4.8 0.00 0.00 0.00 80 1009.7
20260504060224 3 345 3.2 3.2 0.00 0.00 0.00 79 1009.9
20260504050652 2 342 3.2 3.2 0.00 0.00 0.00 83 1009.8
20260504050149 2 341 3.2 4.8 0.00 0.00 0.00 83 1009.9
20260504045646 2 331 3.2 3.2 0.00 0.00 0.00 83 1009.8
20260504045146 2 347 3.2 4.8 0.00 0.00 0.00 83 1009.9
20260504044644 2 348 4.8 4.8 0.00 0.00 0.00 82 1009.9
20260504044140 2 344 3.2 3.2 0.00 0.00 0.00 82 1010.0
20260504043638 2 340 4.8 4.8 0.00 0.00 0.00 82 1010.1
20260504043135 2 328 3.2 3.2 0.00 0.00 0.00 81 1009.9
20260504042632 2 348 3.2 4.8 0.00 0.00 0.00 81 1010.0
20260504042129 2 343 3.2 3.2 0.00 0.00 0.00 81 1010.0
20260504041624 2 352 3.2 3.2 0.00 0.00 0.00 81 1010.0
20260504041121 2 338 3.2 4.8 0.00 0.00 0.00 80 1009.8
20260504040618 3 345 3.2 4.8 0.00 0.00 0.00 80 1009.8
20260504040115 3 341 3.2 4.8 0.00 0.00 0.00 79 1009.9
20260504035612 3 345 3.2 3.2 0.00 0.00 0.00 79 1009.9
20260504035108 3 342 3.2 3.2 0.00 0.00 0.00 79 1009.9
20260504034606 3 4 3.2 3.2 0.00 0.00 0.00 77 1009.9
20260504034103 3 354 3.2 4.8 0.00 0.00 0.00 77 1009.6
20260504033601 3 0 3.2 3.2 0.00 0.00 0.00 76 1009.8
20260504033057 3 1 3.2 4.8 0.00 0.00 0.00 76 1009.8
20260504032554 3 356 4.8 4.8 0.00 0.00 0.00 75 1009.7
20260504032051 3 343 3.2 4.8 0.00 0.00 0.00 75 1009.6
20260504031548 3 343 3.2 4.8 0.00 0.00 0.00 74 1009.6
20260504031044 3 352 3.2 4.8 0.00 0.00 0.00 73 1009.6
20260504030542 3 345 3.2 4.8 0.00 0.00 0.00 72 1009.6
20260504030038 4 342 3.2 4.8 0.00 0.00 0.00 72 1009.5
20260504025535 4 345 3.2 4.8 0.00 0.00 0.00 72 1009.6
20260504025032 4 343 3.2 3.2 0.00 0.00 0.00 72 1009.5
20260504024529 4 340 4.8 4.8 0.00 0.00 0.00 71 1009.7
20260504024026 4 337 3.2 4.8 0.00 0.00 0.00 71 1009.6
20260504023522 5 338 3.2 3.2 0.00 0.00 0.00 70 1009.6
20260504023018 5 334 3.2 3.2 0.00 0.00 0.00 69 1009.6
20260504022514 5 348 3.2 3.2 0.00 0.00 0.00 67 1009.5
20260504022011 5 347 3.2 3.2 0.00 0.00 0.00 66 1009.4
20260504021509 5 350 3.2 4.8 0.00 0.00 0.00 65 1009.5
20260504021005 5 340 3.2 3.2 0.00 0.00 0.00 64 1009.4
20260504020502 5 354 3.2 4.8 0.00 0.00 0.00 63 1009.6
20260504015959 5 352 3.2 3.2 0.00 0.00 0.00 62 1009.6
20260504015455 6 349 4.8 6.4 0.00 0.00 0.00 62 1009.4
20260504014951 6 343 3.2 4.8 0.00 0.00 0.00 61 1009.3
20260504014447 6 346 3.2 4.8 0.00 0.00 0.00 60 1009.4
20260504013944 6 342 4.8 4.8 0.00 0.00 0.00 60 1009.2
20260504013443 6 342 3.2 3.2 0.00 0.00 0.00 59 1009.2
20260504012938 6 351 3.2 3.2 0.00 0.00 0.00 57 1009.1
20260504012437 7 352 3.2 4.8 0.00 0.00 0.00 56 1009.0
20260504011934 7 337 3.2 4.8 0.00 0.00 0.00 53 1009.2
20260504011430 7 356 3.2 4.8 0.00 0.00 0.00 52 1009.1
20260504010926 7 343 3.2 4.8 0.00 0.00 0.00 52 1008.9
20260504010422 7 350 3.2 4.8 0.00 0.00 0.00 54 1008.8
20260504005919 7 347 3.2 4.8 0.00 0.00 0.00 55 1008.9
20260504005415 7 341 4.8 4.8 0.00 0.00 0.00 53 1008.8
20260504004913 7 346 4.8 4.8 0.00 0.00 0.00 56 1008.6
20260504004411 7 346 3.2 3.2 0.00 0.00 0.00 51 1008.5
20260504003907 7 343 4.8 4.8 0.00 0.00 0.00 50 1008.5
20260504003404 7 348 4.8 4.8 0.00 0.00 0.00 49 1008.3
20260504002900 7 344 3.2 4.8 0.00 0.00 0.00 48 1008.3
20260504002357 8 341 4.8 4.8 0.00 0.00 0.00 47 1008.2
20260504001855 8 335 3.2 3.2 0.00 0.00 0.00 50 1008.1
20260504001352 8 337 3.2 3.2 0.00 0.00 0.00 48 1008.0
20260504000848 8 338 3.2 3.2 0.00 0.00 0.00 49 1007.9
20260504000346 9 346 3.2 3.2 0.00 0.00 0.00 47 1008.0
20260503235843 9 332 3.2 3.2 0.00 0.00 0.00 44 1007.9
20260503235341 10 339 3.2 3.2 0.00 0.00 0.00 38 1007.7
20260503234838 10 338 3.2 4.8 0.00 0.00 0.00 40 1007.6
20260503234336 10 354 4.8 4.8 0.00 0.00 0.00 38 1007.8
20260503233833 10 353 3.2 4.8 0.00 0.00 0.00 39 1007.6
20260503233329 10 333 3.2 6.4 0.00 0.00 0.00 38 1007.6
20260503232826 10 346 3.2 6.4 0.00 0.00 0.00 38 1007.6
20260503232323 10 299 6.4 6.4 0.00 0.00 0.00 40 1007.4
20260503231821 11 344 3.2 3.2 0.00 0.00 0.00 38 1007.6
20260503231318 11 11 4.8 6.4 0.00 0.00 0.00 39 1007.4
20260503230814 11 322 3.2 4.8 0.00 0.00 0.00 37 1007.3
20260503230311 11 355 3.2 6.4 0.00 0.00 0.00 38 1007.5
20260503225809 11 2 1.6 4.8 0.00 0.00 0.00 37 1007.3
20260503225304 11 306 0.0 3.2 0.00 0.00 0.00 38 1007.2
20260503224801 11 329 3.2 3.2 0.00 0.00 0.00 37 1007.3
20260503224258 11 43 4.8 8.0 0.00 0.00 0.00 35 1007.4
20260503223755 11 357 4.8 4.8 0.00 0.00 0.00 35 1007.4
20260503223253 11 330 1.6 4.8 0.00 0.00 0.00 33 1007.4
20260503222749 11 35 3.2 8.0 0.00 0.00 0.00 34 1007.4
20260503222247 11 346 3.2 3.2 0.00 0.00 0.00 35 1007.4
20260503221745 11 23 4.8 4.8 0.00 0.00 0.00 36 1007.3
20260503221243 11 41 1.6 6.4 0.00 0.00 0.00 34 1007.3
20260503220739 11 355 3.2 4.8 0.00 0.00 0.00 34 1007.3
20260503220236 12 29 1.6 9.7 0.00 0.00 0.00 34 1007.4
20260503215733 11 341 8.0 9.7 0.00 0.00 0.00 33 1007.3
20260503215230 12 329 4.8 8.0 0.00 0.00 0.00 37 1007.4
20260503214728 12 39 3.2 17.7 0.00 0.00 0.00 32 1007.5
20260503214225 12 350 8.0 8.0 0.00 0.00 0.00 33 1007.4
20260503213723 12 3 6.4 9.7 0.00 0.00 0.00 33 1007.3
20260503213220 12 36 3.2 8.0 0.00 0.00 0.00 35 1007.5
20260503212716 12 212 3.2 9.7 0.00 0.00 0.00 34 1007.5
20260503212214 12 351 6.4 6.4 0.00 0.00 0.00 32 1007.3
20260503211712 12 39 1.6 9.7 0.00 0.00 0.00 34 1007.3
20260503211208 12 22 3.2 8.0 0.00 0.00 0.00 35 1007.3
20260503210703 12 332 6.4 12.9 0.00 0.00 0.00 33 1007.3
20260503210201 12 23 12.9 14.5 0.00 0.00 0.00 33 1007.3
20260503205655 12 352 3.2 9.7 0.00 0.00 0.00 35 1007.3
20260503205152 12 345 4.8 14.5 0.00 0.00 0.00 33 1007.2
20260503204649 12 61 3.2 6.4 0.00 0.00 0.00 32 1007.4
20260503204147 12 330 8.0 8.0 0.00 0.00 0.00 33 1007.3
20260503203643 12 1 9.7 11.3 0.00 0.00 0.00 32 1007.4
20260503203141 13 344 6.4 8.0 0.00 0.00 0.00 32 1007.4
20260503202638 13 305 6.4 12.9 0.00 0.00 0.00 32 1007.3
20260503202136 13 334 1.6 9.7 0.00 0.00 0.00 34 1007.5
20260503201634 13 95 9.7 12.9 0.00 0.00 0.00 31 1007.2
20260503201131 13 1 9.7 12.9 0.00 0.00 0.00 33 1007.5
20260503200627 12 51 4.8 9.7 0.00 0.00 0.00 38 1007.3
20260503200124 12 86 3.2 6.4 0.00 0.00 0.00 33 1007.6
20260503195621 13 358 6.4 17.7 0.00 0.00 0.00 30 1007.4
20260503195118 12 343 6.4 6.4 0.00 0.00 0.00 36 1007.2
20260503194615 12 352 1.6 8.0 0.00 0.00 0.00 33 1007.1
20260503194110 12 346 3.2 6.4 0.00 0.00 0.00 35 1007.5
20260503193607 11 340 4.8 9.7 0.00 0.00 0.00 33 1007.3
20260503193102 11 335 6.4 12.9 0.00 0.00 0.00 35 1007.4
20260503192558 11 0 6.4 9.7 0.00 0.00 0.00 36 1007.3
20260503192054 12 340 4.8 14.5 0.00 0.00 0.00 36 1007.2
20260503191551 12 20 3.2 9.7 0.00 0.00 0.00 37 1007.1
20260503191048 12 337 4.8 16.1 0.00 0.00 0.00 34 1007.3
20260503190545 13 355 4.8 11.3 0.00 0.00 0.00 31 1007.5
20260503190042 12 51 4.8 11.3 0.00 0.00 0.00 34 1007.3
20260503185538 12 40 8.0 14.5 0.00 0.00 0.00 35 1007.2
20260503185038 12 355 6.4 12.9 0.00 0.00 0.00 31 1007.3
20260503184534 13 306 4.8 16.1 0.00 0.00 0.00 32 1007.2
20260503184031 12 10 9.7 12.9 0.00 0.00 0.00 31 1007.5
20260503183528 13 11 6.4 14.5 0.00 0.00 0.00 32 1007.2
20260503183025 13 341 0.0 9.7 0.00 0.00 0.00 31 1007.5
20260503182523 13 66 3.2 9.7 0.00 0.00 0.00 32 1007.3
20260503182021 12 315 3.2 14.5 0.00 0.00 0.00 30 1007.5
20260503181518 13 22 4.8 16.1 0.00 0.00 0.00 31 1007.3
20260503181014 12 355 8.0 11.3 0.00 0.00 0.00 33 1007.3
20260503180512 12 338 9.7 14.5 0.00 0.00 0.00 36 1007.3
20260503180009 12 44 6.4 9.7 0.00 0.00 0.00 32 1007.2
20260503175506 13 356 3.2 17.7 0.00 0.00 0.00 35 1007.1
20260503175003 12 41 1.6 8.0 0.00 0.00 0.00 31 1007.2
20260503174500 12 71 0.0 9.7 0.00 0.00 0.00 38 1007.2
20260503173955 11 357 3.2 9.7 0.00 0.00 0.00 35 1007.3
20260503173451 12 76 3.2 11.3 0.00 0.00 0.00 36 1007.4
20260503172948 12 342 4.8 11.3 0.00 0.00 0.00 36 1007.3
20260503172446 11 86 4.8 9.7 0.00 0.00 0.00 35 1007.4
20260503171942 11 335 11.3 12.9 0.00 0.00 0.00 36 1007.5
20260503171439 11 341 9.7 11.3 0.00 0.00 0.00 40 1007.3
20260503170937 10 8 1.6 11.3 0.00 0.00 0.00 38 1007.5
20260503170432 10 6 8.0 14.5 0.00 0.00 0.00 38 1007.3